Regional Weather Roundup
Issued by NWS Huntsville, AL

Home | Current Version | Previous Version | Text Only | Print | Product List | Glossary On
Versions: 1 2 3 4 5 6 7 8 9 10 11 12 13 14 15 16 17 18 19 20 21 22 23 24 25 26 27 28 29 30 31 32 33 34 35 36 37 38 39 40 41 42 43 44 45 46 47 48 49 50
000
ASUS44 KHUN 302310
RWRHUN

WEATHER ROUNDUP FOR THE TENNESSEE VALLEY
NATIONAL WEATHER SERVICE HUNTSVILLE AL
600 PM CDT MON MAR 30 2015

ALZ001>004-310000-
NORTHWEST ALABAMA

CITY           SKY/WX    TMP DP  RH WIND       PRES   REMARKS
BANKHEAD NF      N/A     71  40  32 NW5         N/A
SHOALS AIRPORT SUNNY     69  43  38 N5        30.12F
SHOALS TVA RES   N/A     68 N/A N/A MISG        N/A
$$

ALZ005>007-016-310000-
NORTH CENTRAL ALABAMA

CITY           SKY/WX    TMP DP  RH WIND       PRES   REMARKS
DECATUR AP     SUNNY     68  39  34 NW7       30.13S
HUNTSVILLE AP  SUNNY     68  39  34 NW7       30.13S
HUN NWS/UAH      N/A     67  35  30 W8          N/A
MERIDIANVILLE  SUNNY     66  28  24 W6        30.12S
REDSTONE ARSN  SUNNY     67  39  36 W8        30.12S
VINEMONT AP    FAIR      68  43  40 NW3       30.14S
$$

ALZ008>010-310000-
NORTHEAST ALABAMA

CITY           SKY/WX    TMP DP  RH WIND       PRES   REMARKS
ALBERTVILLE    SUNNY     66  46  48 NW6       30.11S
FORT PAYNE     SUNNY     64  32  29 W8        30.11R
SCOTTSBORO AP  SUNNY     66  34  30 W9G17     30.12R
SCOTTSBORO HCN   N/A     68 N/A N/A MISG        N/A
VALLEY HEAD      N/A     66 N/A N/A MISG        N/A
$$

TNZ076-096-097-310000-
SOUTHEASTERN MIDDLE TENNESSEE

CITY           SKY/WX    TMP DP  RH WIND       PRES   REMARKS
TULLAHOMA      SUNNY     64  30  27 CALM      30.12F
WINCHESTER     SUNNY     64  34  32 W7        30.12S
$$

...SURROUNDING SITES...

CITY           SKY/WX    TMP DP  RH WIND       PRES   REMARKS
ATLANTA        MOSUNNY   69  44  40 NW7       30.09S
ANNISTON       SUNNY     72  40  31 W5        30.10F
BIRMINGHAM     SUNNY     74  40  29 VRB7      30.12S
CHATTANOOGA    SUNNY     69  31  24 W12       30.09R
CORINTH          N/A     70  41  35 CALM      30.10F
DALTON         SUNNY     68  34  28 CALM      30.09S
GADSDEN        SUNNY     70  41  35 NW6       30.10R
GOLDEN TRNGL   MOSUNNY   75  48  38 NW8       30.10F
HALEYVILLE       N/A     70  41  34 CALM      30.14F
JACKSON TN     SUNNY     69  33  26 W7        30.11F
MEMPHIS        SUNNY     73  38  27 VRB5      30.10F
MURFREESBORO   FAIR      67  23  19 VRB5      30.10S
NASHVILLE      SUNNY     68  23  18 NW5       30.11R
OXFORD MS      FAIR      72  39  30 NW6       30.12F
ROME           SUNNY     68  41  37 W7        30.08F
SAVANNAH       SUNNY     70  36  28 VRB5      30.12F
TUPELO         SUNNY     73  39  29 CALM      30.10F
TUSCALOOSA     SUNNY     77  47  34 W8        30.09S
$$

...GULF COAST WEATHER...

CITY           SKY/WX    TMP DP  RH WIND       PRES   REMARKS
GULFPORT       SUNNY     75  64  68 S12       30.11F
PASCAGOULA     SUNNY     74  64  71 S9        30.12F
MOBILE         MOSUNNY   76  62  62 SW12      30.12S
GULF SHORES    CLEAR     71  64  80 SW13      30.13S
PENSACOLA      MOSUNNY   71  65  81 SW9G21    30.12F
DESTIN         SUNNY     71  63  75 W15G23    30.12F
PANAMA CITY    MOSUNNY   71  64  77 SW10      30.14F
APPALACHICOLA  CLOUDY    74  61  63 W9        30.16S
$$



USA.gov is the U.S. government's official web portal to all federal, state and local government web resources and services.